Puerto Banus, Marbella

>

This is an optional block (switch it off / on) in the settings - file ($SITE['banners'] = false;)

You can display ads, any other important text or photo’s using text / html or PHP code.

You can place one or more at the top and or bottom and it can all be different for content / size .



Meteosat more information blitzortung!


Radar lluvias  rain snow radar


Visita nuestra red de sitios de meteo:

Documentation for the template used

MeteoibericaRed estaciones Meteorologicas

MeteoclimaticRed estaciones Meteorologicas



Sin Advertencias climatologicas .En este momento tenemos Nivel Verde.    No hay Alarmas

Pagina Historial Weather Underground texto

Diario Resumen January 2, 2018 Unidades:  Tanto    impérial   Métrico
« Anterior Dia
Siguiente Dia »
Diario Semana Mensual Anual Personalizada
  Maxima: Minima: Media:
Temperatura: TemperatureC °F /  -17.8 °C 10.0 °F /  -12.2 °C 14.2 °F /  -9.9 °C
Punto de rocío: DewpointC °F /  -17.8 °C 1.8 °F /  -16.8 °C 6.5 °F /  -14.2 °C
Humedad: Humidity % 45 % 60 %
Velocidad del Viento: WindSpeedKMH mph /  0 km/h - 7.6 mph /  12.2 km/h
Ráfagas de viento: WindSpeedGustKMH mph /  0 km/h - -
Viento:- - WSW
Pression baro: PressurehPa in /  0 hPa 1029.7 in /  34865.6 hPa -
Précipitaciones: 0.0 in /  0 mm    
Historical Graphs
 
 
Datos de tabla para January 2, 2018
Tiempo Temperatura Punto de rocío Pression baro Viento Velocidad del Viento Ráfagas de viento Humedad Las precipitaciones Rate ( Hora )
TemperatureC °F /  -17.8 °C DewpointC °F /  -17.8 °C PressurehPa in /  0 hPa Calm     Humidity % HourlyPrecipMM in /  0 mm
00:00 13.8 °F /  -10.1 °C 3.5 °F /  -15.8 °C 1032.7 in /  34967.2 hPa NNW 3.7 mph /  6 km/h 3.7 mph /  6 km/h 50 % 0.0 in /  0 mm
00:01 13.8 °F /  -10.1 °C 3.8 °F /  -15.7 °C 1032.7 in /  34967.2 hPa NNW 6.4 mph /  10.3 km/h 6.4 mph /  10.3 km/h 51 % 0.0 in /  0 mm
00:06 13.6 °F /  -10.2 °C 4.7 °F /  -15.2 °C 1032.7 in /  34967.2 hPa WSW 7.4 mph /  11.9 km/h 7.4 mph /  11.9 km/h 55 % 0.0 in /  0 mm
00:09 13.6 °F /  -10.2 °C 4.7 °F /  -15.2 °C 1032.7 in /  34967.2 hPa WSW 5.6 mph /  9 km/h 5.6 mph /  9 km/h 55 % 0.0 in /  0 mm
00:11 13.4 °F /  -10.3 °C 4.3 °F /  -15.4 °C 1032.7 in /  34967.2 hPa WSW 5.6 mph /  9 km/h 5.6 mph /  9 km/h 54 % 0.0 in /  0 mm
00:16 13.3 °F /  -10.4 °C 3.1 °F /  -16.1 °C 1032.7 in /  34967.2 hPa WSW 1.9 mph /  3.1 km/h   50 % 0.0 in /  0 mm
00:17 13.3 °F /  -10.4 °C 3.1 °F /  -16.1 °C 1032.7 in /  34967.2 hPa Calm     50 % 0.0 in /  0 mm
00:21 13.3 °F /  -10.4 °C 2.5 °F /  -16.4 °C 1032.7 in /  34967.2 hPa Calm     48 % 0.0 in /  0 mm
00:24 13.3 °F /  -10.4 °C 2.2 °F /  -16.6 °C 1032.4 in /  34957.1 hPa WSW 1.9 mph /  3.1 km/h   47 % 0.0 in /  0 mm
00:27 13.2 °F /  -10.4 °C 1.8 °F /  -16.8 °C 1032.4 in /  34957.1 hPa Calm     46 % 0.0 in /  0 mm
00:30 13.3 °F /  -10.4 °C 2.2 °F /  -16.6 °C 1032.7 in /  34967.2 hPa WSW 3.7 mph /  6 km/h 3.7 mph /  6 km/h 47 % 0.0 in /  0 mm
00:32 13.3 °F /  -10.4 °C 2.5 °F /  -16.4 °C 1032.4 in /  34957.1 hPa WSW 3.7 mph /  6 km/h 3.7 mph /  6 km/h 48 % 0.0 in /  0 mm
00:37 12.9 °F /  -10.6 °C 2.2 °F /  -16.6 °C 1032.4 in /  34957.1 hPa North 8.0 mph /  12.9 km/h 8.0 mph /  12.9 km/h 48 % 0.0 in /  0 mm
00:39 12.7 °F /  -10.7 °C 2.2 °F /  -16.6 °C 1032.4 in /  34957.1 hPa North 7.4 mph /  11.9 km/h 7.4 mph /  11.9 km/h 49 % 0.0 in /  0 mm
00:42 12.3 °F /  -10.9 °C 2.2 °F /  -16.6 °C 1032.4 in /  34957.1 hPa North 11.1 mph /  17.9 km/h 11.1 mph /  17.9 km/h 50 % 0.0 in /  0 mm
00:47 12.1 °F /  -11.1 °C 2.3 °F /  -16.5 °C 1032.4 in /  34957.1 hPa North 8.0 mph /  12.9 km/h 8.0 mph /  12.9 km/h 51 % 0.0 in /  0 mm
00:48 12.1 °F /  -11.1 °C 2.3 °F /  -16.5 °C 1032.4 in /  34957.1 hPa North 11.1 mph /  17.9 km/h 11.1 mph /  17.9 km/h 51 % 0.0 in /  0 mm
00:53 12.0 °F /  -11.1 °C 2.4 °F /  -16.4 °C 1032.4 in /  34957.1 hPa NNW 13.0 mph /  20.9 km/h 13.0 mph /  20.9 km/h 52 % 0.0 in /  0 mm
00:55 11.9 °F /  -11.2 °C 2.3 °F /  -16.5 °C 1032.4 in /  34957.1 hPa NNW 13.0 mph /  20.9 km/h 13.0 mph /  20.9 km/h 52 % 0.0 in /  0 mm
01:00 11.9 °F /  -11.2 °C 2.3 °F /  -16.5 °C 1032.1 in /  34946.9 hPa NNW 9.3 mph /  15 km/h 9.3 mph /  15 km/h 52 % 0.0 in /  0 mm
01:01 11.9 °F /  -11.2 °C 2.4 °F /  -16.4 °C 1032.4 in /  34957.1 hPa NNW 9.3 mph /  15 km/h 9.3 mph /  15 km/h 52 % 0.0 in /  0 mm
01:06 12.1 °F /  -11.1 °C 2.5 °F /  -16.4 °C 1032.4 in /  34957.1 hPa NW 7.4 mph /  11.9 km/h 7.4 mph /  11.9 km/h 52 % 0.0 in /  0 mm
01:11 12.2 °F /  -11 °C 2.3 °F /  -16.5 °C 1032.1 in /  34946.9 hPa NNW 5.6 mph /  9 km/h 5.6 mph /  9 km/h 51 % 0.0 in /  0 mm
01:16 12.2 °F /  -11 °C 2.4 °F /  -16.4 °C 1032.4 in /  34957.1 hPa NNW 8.0 mph /  12.9 km/h 8.0 mph /  12.9 km/h 51 % 0.0 in /  0 mm
01:18 12.2 °F /  -11 °C 2.3 °F /  -16.5 °C 1032.1 in /  34946.9 hPa North 11.1 mph /  17.9 km/h 11.1 mph /  17.9 km/h 51 % 0.0 in /  0 mm
01:22 12.0 °F /  -11.1 °C 2.2 °F /  -16.6 °C 1032.1 in /  34946.9 hPa NNW 13.0 mph /  20.9 km/h 13.0 mph /  20.9 km/h 51 % 0.0 in /  0 mm
01:23 12.0 °F /  -11.1 °C 2.2 °F /  -16.6 °C 1032.1 in /  34946.9 hPa NNW 13.0 mph /  20.9 km/h 13.0 mph /  20.9 km/h 51 % 0.0 in /  0 mm
01:28 12.1 °F /  -11.1 °C 2.5 °F /  -16.4 °C 1032.1 in /  34946.9 hPa NNW 9.3 mph /  15 km/h 9.3 mph /  15 km/h 52 % 0.0 in /  0 mm
01:29 12.1 °F /  -11.1 °C 2.5 °F /  -16.4 °C 1032.1 in /  34946.9 hPa NNW 7.4 mph /  11.9 km/h 7.4 mph /  11.9 km/h 52 % 0.0 in /  0 mm
01:31 12.0 °F /  -11.1 °C 2.4 °F /  -16.4 °C 1032.1 in /  34946.9 hPa NNW 11.1 mph /  17.9 km/h 11.1 mph /  17.9 km/h 52 % 0.0 in /  0 mm
01:34 12.1 °F /  -11.1 °C 2.5 °F /  -16.4 °C 1032.1 in /  34946.9 hPa NNW 9.3 mph /  15 km/h 9.3 mph /  15 km/h 52 % 0.0 in /  0 mm
01:39 12.1 °F /  -11.1 °C 2.6 °F /  -16.3 °C 1032.1 in /  34946.9 hPa NNW 7.4 mph /  11.9 km/h 7.4 mph /  11.9 km/h 52 % 0.0 in /  0 mm
01:41 12.1 °F /  -11.1 °C 2.6 °F /  -16.3 °C 1032.1 in /  34946.9 hPa NNW 7.4 mph /  11.9 km/h 7.4 mph /  11.9 km/h 52 % 0.0 in /  0 mm
01:46 12.1 °F /  -11.1 °C 2.8 °F /  -16.2 °C 1031.7 in /  34933.4 hPa NNW 9.3 mph /  15 km/h 9.3 mph /  15 km/h 53 % 0.0 in /  0 mm
01:47 12.1 °F /  -11.1 °C 2.8 °F /  -16.2 °C 1031.7 in /  34933.4 hPa NNW 9.3 mph /  15 km/h 9.3 mph /  15 km/h 53 % 0.0 in /  0 mm
01:50 12.1 °F /  -11.1 °C 2.8 °F /  -16.2 °C 1032.1 in /  34946.9 hPa NNW 5.6 mph /  9 km/h 5.6 mph /  9 km/h 53 % 0.0 in /  0 mm
01:52 12.2 °F /  -11 °C 3.4 °F /  -15.9 °C 1032.1 in /  34946.9 hPa WSW 5.6 mph /  9 km/h 5.6 mph /  9 km/h 55 % 0.0 in /  0 mm
01:56 12.3 °F /  -10.9 °C 3.7 °F /  -15.7 °C 1032.1 in /  34946.9 hPa WSW 3.7 mph /  6 km/h 3.7 mph /  6 km/h 56 % 0.0 in /  0 mm
01:58 12.2 °F /  -11 °C 3.7 °F /  -15.7 °C 1032.1 in /  34946.9 hPa WNW 5.6 mph /  9 km/h 5.6 mph /  9 km/h 56 % 0.0 in /  0 mm
02:03 12.2 °F /  -11 °C 3.2 °F /  -16 °C 1031.7 in /  34933.4 hPa NW 3.7 mph /  6 km/h 3.7 mph /  6 km/h 54 % 0.0 in /  0 mm
02:05 12.3 °F /  -10.9 °C 3.2 °F /  -16 °C 1031.7 in /  34933.4 hPa Calm     54 % 0.0 in /  0 mm
02:09 12.2 °F /  -11 °C 3.2 °F /  -16 °C 1031.7 in /  34933.4 hPa NW 3.7 mph /  6 km/h 3.7 mph /  6 km/h 54 % 0.0 in /  0 mm
02:10 12.2 °F /  -11 °C 3.2 °F /  -16 °C 1031.7 in /  34933.4 hPa NW 3.7 mph /  6 km/h 3.7 mph /  6 km/h 54 % 0.0 in /  0 mm
02:15 12.2 °F /  -11 °C 3.4 °F /  -15.9 °C 1031.7 in /  34933.4 hPa NW 3.7 mph /  6 km/h 3.7 mph /  6 km/h 55 % 0.0 in /  0 mm
02:16 12.2 °F /  -11 °C 3.4 °F /  -15.9 °C 1031.7 in /  34933.4 hPa NW 3.7 mph /  6 km/h 3.7 mph /  6 km/h 55 % 0.0 in /  0 mm
02:21 12.1 °F /  -11.1 °C 3.8 °F /  -15.7 °C 1031.7 in /  34933.4 hPa WSW 7.4 mph /  11.9 km/h 7.4 mph /  11.9 km/h 57 % 0.0 in /  0 mm
02:23 12.1 °F /  -11.1 °C 3.6 °F /  -15.8 °C 1031.7 in /  34933.4 hPa WSW 5.6 mph /  9 km/h 5.6 mph /  9 km/h 56 % 0.0 in /  0 mm
02:27 12.2 °F /  -11 °C 3.7 °F /  -15.7 °C 1031.7 in /  34933.4 hPa NW 8.0 mph /  12.9 km/h 8.0 mph /  12.9 km/h 56 % 0.0 in /  0 mm
02:30 12.4 °F /  -10.9 °C 3.3 °F /  -15.9 °C 1031.7 in /  34933.4 hPa WNW 11.1 mph /  17.9 km/h 11.1 mph /  17.9 km/h 54 % 0.0 in /  0 mm
02:33 12.7 °F /  -10.7 °C 3.4 °F /  -15.9 °C 1031.7 in /  34933.4 hPa WNW 6.4 mph /  10.3 km/h 6.4 mph /  10.3 km/h 53 % 0.0 in /  0 mm
02:37 12.9 °F /  -10.6 °C 3.6 °F /  -15.8 °C 1031.7 in /  34933.4 hPa NW 4.8 mph /  7.7 km/h 4.8 mph /  7.7 km/h 53 % 0.0 in /  0 mm
02:38 12.9 °F /  -10.6 °C 3.6 °F /  -15.8 °C 1031.7 in /  34933.4 hPa NW 5.6 mph /  9 km/h 5.6 mph /  9 km/h 53 % 0.0 in /  0 mm
02:43 12.2 °F /  -11 °C 3.7 °F /  -15.7 °C 1031.7 in /  34933.4 hPa North 5.6 mph /  9 km/h 5.6 mph /  9 km/h 56 % 0.0 in /  0 mm
02:48 11.3 °F /  -11.5 °C 3.6 °F /  -15.8 °C 1031.7 in /  34933.4 hPa NE 5.6 mph /  9 km/h 6.0 mph /  9.7 km/h 59 % 0.0 in /  0 mm
02:53 11.1 °F /  -11.6 °C 3.6 °F /  -15.8 °C 1031.7 in /  34933.4 hPa NE 5.6 mph /  9 km/h 5.6 mph /  9 km/h 60 % 0.0 in /  0 mm
02:54 11.0 °F /  -11.7 °C 3.5 °F /  -15.8 °C 1031.7 in /  34933.4 hPa NE 3.7 mph /  6 km/h 3.7 mph /  6 km/h 60 % 0.0 in /  0 mm
02:59 11.1 °F /  -11.6 °C 3.4 °F /  -15.9 °C 1031.7 in /  34933.4 hPa NNE 5.6 mph /  9 km/h 5.6 mph /  9 km/h 59 % 0.0 in /  0 mm
03:04 11.2 °F /  -11.6 °C 3.7 °F /  -15.7 °C 1031.7 in /  34933.4 hPa NNE 5.6 mph /  9 km/h 5.6 mph /  9 km/h 60 % 0.0 in /  0 mm
03:05 11.2 °F /  -11.6 °C 3.7 °F /  -15.7 °C 1031.7 in /  34933.4 hPa NNE 5.6 mph /  9 km/h 5.6 mph /  9 km/h 60 % 0.0 in /  0 mm
03:09 11.2 °F /  -11.6 °C 3.7 °F /  -15.7 °C 1032.1 in /  34946.9 hPa North 5.6 mph /  9 km/h 5.6 mph /  9 km/h 60 % 0.0 in /  0 mm
03:11 11.2 °F /  -11.6 °C 3.7 °F /  -15.7 °C 1032.1 in /  34946.9 hPa North 5.6 mph /  9 km/h 5.6 mph /  9 km/h 60 % 0.0 in /  0 mm
03:16 10.9 °F /  -11.7 °C 3.5 °F /  -15.8 °C 1032.1 in /  34946.9 hPa North 5.6 mph /  9 km/h 5.6 mph /  9 km/h 60 % 0.0 in /  0 mm
03:19 10.8 °F /  -11.8 °C 3.6 °F /  -15.8 °C 1032.1 in /  34946.9 hPa North 7.4 mph /  11.9 km/h 7.4 mph /  11.9 km/h 61 % 0.0 in /  0 mm
03:23 10.7 °F /  -11.8 °C 3.5 °F /  -15.8 °C 1032.1 in /  34946.9 hPa North 7.4 mph /  11.9 km/h 7.4 mph /  11.9 km/h 61 % 0.0 in /  0 mm
03:28 10.9 °F /  -11.7 °C 3.5 °F /  -15.8 °C 1032.1 in /  34946.9 hPa NNW 5.6 mph /  9 km/h 5.6 mph /  9 km/h 60 % 0.0 in /  0 mm
03:30 11.0 °F /  -11.7 °C 3.5 °F /  -15.8 °C 1032.1 in /  34946.9 hPa NNW 5.6 mph /  9 km/h 6.0 mph /  9.7 km/h 60 % 0.0 in /  0 mm
03:33 11.2 °F /  -11.6 °C 3.7 °F /  -15.7 °C 1032.1 in /  34946.9 hPa NNW 5.6 mph /  9 km/h 5.6 mph /  9 km/h 60 % 0.0 in /  0 mm
03:38 11.4 °F /  -11.4 °C 3.9 °F /  -15.6 °C 1032.1 in /  34946.9 hPa NNW 4.8 mph /  7.7 km/h 4.8 mph /  7.7 km/h 60 % 0.0 in /  0 mm
03:39 11.4 °F /  -11.4 °C 3.9 °F /  -15.6 °C 1032.1 in /  34946.9 hPa NNW 4.8 mph /  7.7 km/h 4.8 mph /  7.7 km/h 60 % 0.0 in /  0 mm
03:43 11.7 °F /  -11.3 °C 4.2 °F /  -15.4 °C 1032.1 in /  34946.9 hPa NNW 5.6 mph /  9 km/h 5.6 mph /  9 km/h 60 % 0.0 in /  0 mm
03:44 11.7 °F /  -11.3 °C 4.2 °F /  -15.4 °C 1032.1 in /  34946.9 hPa NNW 6.4 mph /  10.3 km/h 6.4 mph /  10.3 km/h 60 % 0.0 in /  0 mm
03:49 11.8 °F /  -11.2 °C 4.1 °F /  -15.5 °C 1032.1 in /  34946.9 hPa NNW 3.7 mph /  6 km/h 3.7 mph /  6 km/h 59 % 0.0 in /  0 mm
03:51 11.9 °F /  -11.2 °C 3.9 °F /  -15.6 °C 1032.1 in /  34946.9 hPa NNW 7.4 mph /  11.9 km/h 7.4 mph /  11.9 km/h 58 % 0.0 in /  0 mm
03:56 11.7 °F /  -11.3 °C 3.9 °F /  -15.6 °C 1032.1 in /  34946.9 hPa NNW 7.4 mph /  11.9 km/h 7.4 mph /  11.9 km/h 59 % 0.0 in /  0 mm
04:01 11.4 °F /  -11.4 °C 3.7 °F /  -15.7 °C 1031.7 in /  34933.4 hPa NNW 9.3 mph /  15 km/h 9.3 mph /  15 km/h 59 % 0.0 in /  0 mm
04:02 11.4 °F /  -11.4 °C 3.7 °F /  -15.7 °C 1031.7 in /  34933.4 hPa NNW 9.3 mph /  15 km/h 9.3 mph /  15 km/h 59 % 0.0 in /  0 mm
04:04 11.4 °F /  -11.4 °C 3.7 °F /  -15.7 °C 1031.7 in /  34933.4 hPa NNW 9.3 mph /  15 km/h 9.3 mph /  15 km/h 59 % 0.0 in /  0 mm
04:09 11.5 °F /  -11.4 °C 3.8 °F /  -15.7 °C 1031.7 in /  34933.4 hPa North 7.4 mph /  11.9 km/h 7.4 mph /  11.9 km/h 59 % 0.0 in /  0 mm
04:15 11.4 °F /  -11.4 °C 3.7 °F /  -15.7 °C 1031.7 in /  34933.4 hPa NNW 4.8 mph /  7.7 km/h 9.7 mph /  15.6 km/h 59 % 0.0 in /  0 mm
04:19 11.4 °F /  -11.4 °C 3.7 °F /  -15.7 °C 1031.7 in /  34933.4 hPa NNW 5.6 mph /  9 km/h 5.6 mph /  9 km/h 59 % 0.0 in /  0 mm
04:24 11.6 °F /  -11.3 °C 3.6 °F /  -15.8 °C 1031.7 in /  34933.4 hPa NW 9.3 mph /  15 km/h 9.3 mph /  15 km/h 58 % 0.0 in /  0 mm
04:29 11.2 °F /  -11.6 °C 3.5 °F /  -15.8 °C 1031.7 in /  34933.4 hPa NNW 13.0 mph /  20.9 km/h 13.0 mph /  20.9 km/h 59 % 0.0 in /  0 mm
04:33 11.1 °F /  -11.6 °C 3.6 °F /  -15.8 °C 1031.7 in /  34933.4 hPa NNW 8.0 mph /  12.9 km/h 8.0 mph /  12.9 km/h 60 % 0.0 in /  0 mm
04:38 11.1 °F /  -11.6 °C 3.6 °F /  -15.8 °C 1031.7 in /  34933.4 hPa NNW 7.4 mph /  11.9 km/h 7.4 mph /  11.9 km/h 60 % 0.0 in /  0 mm
04:42 11.0 °F /  -11.7 °C 3.8 °F /  -15.7 °C 1031.7 in /  34933.4 hPa North 8.0 mph /  12.9 km/h 8.0 mph /  12.9 km/h 61 % 0.0 in /  0 mm
04:43 11.0 °F /  -11.7 °C 3.8 °F /  -15.7 °C 1031.7 in /  34933.4 hPa North 9.7 mph /  15.6 km/h 9.7 mph /  15.6 km/h 61 % 0.0 in /  0 mm
04:48 10.6 °F /  -11.9 °C 3.4 °F /  -15.9 °C 1031.7 in /  34933.4 hPa North 9.3 mph /  15 km/h 9.3 mph /  15 km/h 61 % 0.0 in /  0 mm
04:49 10.6 °F /  -11.9 °C 3.4 °F /  -15.9 °C 1031.7 in /  34933.4 hPa NNW 11.3 mph /  18.2 km/h 11.3 mph /  18.2 km/h 61 % 0.0 in /  0 mm
04:50 10.6 °F /  -11.9 °C 3.3 °F /  -15.9 °C 1031.7 in /  34933.4 hPa NW 13.0 mph /  20.9 km/h 13.0 mph /  20.9 km/h 61 % 0.0 in /  0 mm
04:55 10.8 °F /  -11.8 °C 3.6 °F /  -15.8 °C 1031.7 in /  34933.4 hPa NNE 11.3 mph /  18.2 km/h 11.3 mph /  18.2 km/h 61 % 0.0 in /  0 mm
04:56 10.8 °F /  -11.8 °C 3.6 °F /  -15.8 °C 1031.7 in /  34933.4 hPa North 11.3 mph /  18.2 km/h 11.3 mph /  18.2 km/h 61 % 0.0 in /  0 mm
05:01 10.5 °F /  -11.9 °C 3.7 °F /  -15.7 °C 1031.7 in /  34933.4 hPa NNW 13.0 mph /  20.9 km/h 13.0 mph /  20.9 km/h 63 % 0.0 in /  0 mm
05:02 10.4 °F /  -12 °C 3.7 °F /  -15.7 °C 1031.7 in /  34933.4 hPa North 14.5 mph /  23.3 km/h 14.5 mph /  23.3 km/h 63 % 0.0 in /  0 mm
05:08 10.2 °F /  -12.1 °C 3.9 °F /  -15.6 °C 1031.4 in /  34923.2 hPa NNW 14.8 mph /  23.8 km/h 14.8 mph /  23.8 km/h 65 % 0.0 in /  0 mm
05:13 10.3 °F /  -12.1 °C 3.8 °F /  -15.7 °C 1031.4 in /  34923.2 hPa NNW 14.8 mph /  23.8 km/h 14.8 mph /  23.8 km/h 64 % 0.0 in /  0 mm
05:18 10.6 °F /  -11.9 °C 4.0 °F /  -15.6 °C 1031.4 in /  34923.2 hPa North 13.0 mph /  20.9 km/h 13.0 mph /  20.9 km/h 64 % 0.0 in /  0 mm
05:19 10.7 °F /  -11.8 °C 3.9 °F /  -15.6 °C 1031.4 in /  34923.2 hPa North 16.7 mph /  26.9 km/h 16.7 mph /  26.9 km/h 63 % 0.0 in /  0 mm
05:24 10.8 °F /  -11.8 °C 4.0 °F /  -15.6 °C 1031.4 in /  34923.2 hPa NNW 13.0 mph /  20.9 km/h 13.0 mph /  20.9 km/h 63 % 0.0 in /  0 mm
05:26 10.8 °F /  -11.8 °C 4.1 °F /  -15.5 °C 1031.4 in /  34923.2 hPa NNW 11.1 mph /  17.9 km/h 11.1 mph /  17.9 km/h 63 % 0.0 in /  0 mm
05:29 10.9 °F /  -11.7 °C 3.9 °F /  -15.6 °C 1031.4 in /  34923.2 hPa NNW 13.0 mph /  20.9 km/h 13.0 mph /  20.9 km/h 62 % 0.0 in /  0 mm
05:34 10.9 °F /  -11.7 °C 3.7 °F /  -15.7 °C 1031.4 in /  34923.2 hPa North 11.1 mph /  17.9 km/h 11.1 mph /  17.9 km/h 61 % 0.0 in /  0 mm
05:35 10.9 °F /  -11.7 °C 3.7 °F /  -15.7 °C 1031.0 in /  34909.7 hPa North 11.1 mph /  17.9 km/h 11.1 mph /  17.9 km/h 61 % 0.0 in /  0 mm
05:40 10.6 °F /  -11.9 °C 3.8 °F /  -15.7 °C 1031.4 in /  34923.2 hPa North 13.0 mph /  20.9 km/h 13.0 mph /  20.9 km/h 63 % 0.0 in /  0 mm
05:41 10.6 °F /  -11.9 °C 3.8 °F /  -15.7 °C 1031.4 in /  34923.2 hPa NNW 14.8 mph /  23.8 km/h 14.8 mph /  23.8 km/h 63 % 0.0 in /  0 mm
05:48 10.6 °F /  -11.9 °C 3.8 °F /  -15.7 °C 1031.0 in /  34909.7 hPa NNW 11.1 mph /  17.9 km/h 11.1 mph /  17.9 km/h 63 % 0.0 in /  0 mm
05:56 10.6 °F /  -11.9 °C 3.8 °F /  -15.7 °C 1031.0 in /  34909.7 hPa North 13.0 mph /  20.9 km/h 13.0 mph /  20.9 km/h 63 % 0.0 in /  0 mm
06:00 10.3 °F /  -12.1 °C 3.8 °F /  -15.7 °C 1031.0 in /  34909.7 hPa NNW 11.1 mph /  17.9 km/h 11.1 mph /  17.9 km/h 64 % 0.0 in /  0 mm
06:02 10.3 °F /  -12.1 °C 3.8 °F /  -15.7 °C 1031.0 in /  34909.7 hPa NNW 13.0 mph /  20.9 km/h 13.0 mph /  20.9 km/h 64 % 0.0 in /  0 mm
06:08 10.2 °F /  -12.1 °C 3.7 °F /  -15.7 °C 1031.0 in /  34909.7 hPa North 14.8 mph /  23.8 km/h 14.8 mph /  23.8 km/h 64 % 0.0 in /  0 mm
06:12 10.2 °F /  -12.1 °C 3.7 °F /  -15.7 °C 1031.0 in /  34909.7 hPa NNW 13.0 mph /  20.9 km/h 13.0 mph /  20.9 km/h 64 % 0.0 in /  0 mm
06:13 10.2 °F /  -12.1 °C 3.9 °F /  -15.6 °C 1031.0 in /  34909.7 hPa North 12.9 mph /  20.8 km/h 12.9 mph /  20.8 km/h 65 % 0.0 in /  0 mm
06:20 10.0 °F /  -12.2 °C 3.7 °F /  -15.7 °C 1031.0 in /  34909.7 hPa NNW 13.0 mph /  20.9 km/h 13.0 mph /  20.9 km/h 65 % 0.0 in /  0 mm
06:21 10.1 °F /  -12.2 °C 3.8 °F /  -15.7 °C 1031.0 in /  34909.7 hPa NNW 11.1 mph /  17.9 km/h 11.1 mph /  17.9 km/h 65 % 0.0 in /  0 mm
06:26 10.1 °F /  -12.2 °C 3.8 °F /  -15.7 °C 1031.0 in /  34909.7 hPa North 9.7 mph /  15.6 km/h 9.7 mph /  15.6 km/h 65 % 0.0 in /  0 mm
06:30 10.1 °F /  -12.2 °C 3.8 °F /  -15.7 °C 1031.0 in /  34909.7 hPa NNW 9.3 mph /  15 km/h 9.3 mph /  15 km/h 65 % 0.0 in /  0 mm
06:35 10.2 °F /  -12.1 °C 3.9 °F /  -15.6 °C 1031.0 in /  34909.7 hPa NNW 11.1 mph /  17.9 km/h 11.1 mph /  17.9 km/h 65 % 0.0 in /  0 mm
06:40 10.2 °F /  -12.1 °C 3.9 °F /  -15.6 °C 1031.0 in /  34909.7 hPa NNW 13.0 mph /  20.9 km/h 13.0 mph /  20.9 km/h 65 % 0.0 in /  0 mm
06:41 10.2 °F /  -12.1 °C 3.9 °F /  -15.6 °C 1031.0 in /  34909.7 hPa NNW 13.0 mph /  20.9 km/h 13.0 mph /  20.9 km/h 65 % 0.0 in /  0 mm
06:43 10.3 °F /  -12.1 °C 4.0 °F /  -15.6 °C 1031.0 in /  34909.7 hPa North 7.4 mph /  11.9 km/h 7.4 mph /  11.9 km/h 65 % 0.0 in /  0 mm
06:48 10.2 °F /  -12.1 °C 3.9 °F /  -15.6 °C 1031.0 in /  34909.7 hPa NNW 11.3 mph /  18.2 km/h 11.3 mph /  18.2 km/h 65 % 0.0 in /  0 mm
06:53 10.0 °F /  -12.2 °C 3.7 °F /  -15.7 °C 1031.0 in /  34909.7 hPa NNW 11.1 mph /  17.9 km/h 11.1 mph /  17.9 km/h 65 % 0.0 in /  0 mm
06:58 10.0 °F /  -12.2 °C 3.7 °F /  -15.7 °C 1031.0 in /  34909.7 hPa North 8.0 mph /  12.9 km/h 8.0 mph /  12.9 km/h 65 % 0.0 in /  0 mm
06:59 10.1 °F /  -12.2 °C 3.8 °F /  -15.7 °C 1031.0 in /  34909.7 hPa North 12.9 mph /  20.8 km/h 12.9 mph /  20.8 km/h 65 % 0.0 in /  0 mm
07:03 10.2 °F /  -12.1 °C 3.9 °F /  -15.6 °C 1031.0 in /  34909.7 hPa North 11.3 mph /  18.2 km/h 11.3 mph /  18.2 km/h 65 % 0.0 in /  0 mm
07:08 10.3 °F /  -12.1 °C 3.8 °F /  -15.7 °C 1031.4 in /  34923.2 hPa NNW 11.1 mph /  17.9 km/h 11.1 mph /  17.9 km/h 64 % 0.0 in /  0 mm
07:09 10.4 °F /  -12 °C 3.9 °F /  -15.6 °C 1031.0 in /  34909.7 hPa North 9.7 mph /  15.6 km/h 9.7 mph /  15.6 km/h 64 % 0.0 in /  0 mm
07:14 10.6 °F /  -11.9 °C 3.8 °F /  -15.7 °C 1031.4 in /  34923.2 hPa NNE 11.3 mph /  18.2 km/h 11.3 mph /  18.2 km/h 63 % 0.0 in /  0 mm
07:17 10.5 °F /  -11.9 °C 3.7 °F /  -15.7 °C 1031.4 in /  34923.2 hPa NNW 18.5 mph /  29.8 km/h 18.5 mph /  29.8 km/h 63 % 0.0 in /  0 mm
07:19 10.3 °F /  -12.1 °C 3.8 °F /  -15.7 °C 1031.4 in /  34923.2 hPa NW 11.1 mph /  17.9 km/h 11.1 mph /  17.9 km/h 64 % 0.0 in /  0 mm
07:24 10.5 °F /  -11.9 °C 3.9 °F /  -15.6 °C 1031.4 in /  34923.2 hPa NNW 18.5 mph /  29.8 km/h 18.5 mph /  29.8 km/h 64 % 0.0 in /  0 mm
07:27 10.5 °F /  -11.9 °C 3.9 °F /  -15.6 °C 1031.4 in /  34923.2 hPa NNW 11.1 mph /  17.9 km/h 11.1 mph /  17.9 km/h 64 % 0.0 in /  0 mm
07:30 10.6 °F /  -11.9 °C 3.8 °F /  -15.7 °C 1031.4 in /  34923.2 hPa NNW 11.1 mph /  17.9 km/h 11.1 mph /  17.9 km/h 63 % 0.0 in /  0 mm
07:35 10.8 °F /  -11.8 °C 4.0 °F /  -15.6 °C 1031.7 in /  34933.4 hPa North 11.3 mph /  18.2 km/h 11.3 mph /  18.2 km/h 63 % 0.0 in /  0 mm
07:40 10.6 °F /  -11.9 °C 3.8 °F /  -15.7 °C 1031.7 in /  34933.4 hPa NNW 13.0 mph /  20.9 km/h 13.0 mph /  20.9 km/h 63 % 0.0 in /  0 mm
07:41 10.6 °F /  -11.9 °C 3.8 °F /  -15.7 °C 1031.7 in /  34933.4 hPa NNW 13.0 mph /  20.9 km/h 13.0 mph /  20.9 km/h 63 % 0.0 in /  0 mm
07:42 10.6 °F /  -11.9 °C 3.8 °F /  -15.7 °C 1031.7 in /  34933.4 hPa NNW 13.0 mph /  20.9 km/h 13.0 mph /  20.9 km/h 63 % 0.0 in /  0 mm
07:46 10.4 °F /  -12 °C 3.9 °F /  -15.6 °C 1031.7 in /  34933.4 hPa NNW 14.8 mph /  23.8 km/h 14.8 mph /  23.8 km/h 64 % 0.0 in /  0 mm
07:51 10.2 °F /  -12.1 °C 3.7 °F /  -15.7 °C 1031.7 in /  34933.4 hPa NNW 14.8 mph /  23.8 km/h 14.8 mph /  23.8 km/h 64 % 0.0 in /  0 mm
07:56 10.3 °F /  -12.1 °C 3.8 °F /  -15.7 °C 1031.7 in /  34933.4 hPa NNW 11.1 mph /  17.9 km/h 11.1 mph /  17.9 km/h 64 % 0.0 in /  0 mm
07:59 10.4 °F /  -12 °C 3.9 °F /  -15.6 °C 1031.7 in /  34933.4 hPa NNW 11.1 mph /  17.9 km/h 11.1 mph /  17.9 km/h 64 % 0.0 in /  0 mm
08:01 10.6 °F /  -11.9 °C 3.8 °F /  -15.7 °C 1031.7 in /  34933.4 hPa NNW 11.1 mph /  17.9 km/h 11.1 mph /  17.9 km/h 63 % 0.0 in /  0 mm
08:06 10.7 °F /  -11.8 °C 3.7 °F /  -15.7 °C 1031.7 in /  34933.4 hPa North 12.9 mph /  20.8 km/h 12.9 mph /  20.8 km/h 62 % 0.0 in /  0 mm
08:07 10.7 °F /  -11.8 °C 3.9 °F /  -15.6 °C 1031.7 in /  34933.4 hPa North 14.5 mph /  23.3 km/h 14.5 mph /  23.3 km/h 63 % 0.0 in /  0 mm
08:10 10.6 °F /  -11.9 °C 3.8 °F /  -15.7 °C 1031.7 in /  34933.4 hPa NNW 13.0 mph /  20.9 km/h 13.0 mph /  20.9 km/h 63 % 0.0 in /  0 mm
08:13 10.6 °F /  -11.9 °C 3.6 °F /  -15.8 °C 1032.1 in /  34946.9 hPa North 11.3 mph /  18.2 km/h 11.3 mph /  18.2 km/h 62 % 0.0 in /  0 mm
08:15 10.6 °F /  -11.9 °C 3.6 °F /  -15.8 °C 1032.1 in /  34946.9 hPa NNW 11.1 mph /  17.9 km/h 11.1 mph /  17.9 km/h 62 % 0.0 in /  0 mm
08:20 10.7 °F /  -11.8 °C 3.7 °F /  -15.7 °C 1032.1 in /  34946.9 hPa NNW 9.3 mph /  15 km/h 9.3 mph /  15 km/h 62 % 0.0 in /  0 mm
08:22 10.7 °F /  -11.8 °C 3.7 °F /  -15.7 °C 1032.1 in /  34946.9 hPa NNW 11.1 mph /  17.9 km/h 11.1 mph /  17.9 km/h 62 % 0.0 in /  0 mm
08:26 10.7 °F /  -11.8 °C 3.7 °F /  -15.7 °C 1032.1 in /  34946.9 hPa North 11.1 mph /  17.9 km/h 11.1 mph /  17.9 km/h 62 % 0.0 in /  0 mm
08:31 10.4 °F /  -12 °C 3.4 °F /  -15.9 °C 1032.1 in /  34946.9 hPa NNW 7.4 mph /  11.9 km/h 7.4 mph /  11.9 km/h 62 % 0.0 in /  0 mm
08:33 10.5 °F /  -11.9 °C 3.5 °F /  -15.8 °C 1032.1 in /  34946.9 hPa North 11.3 mph /  18.2 km/h 11.3 mph /  18.2 km/h 62 % 0.0 in /  0 mm
08:38 10.7 °F /  -11.8 °C 3.4 °F /  -15.9 °C 1032.1 in /  34946.9 hPa North 9.3 mph /  15 km/h 9.3 mph /  15 km/h 61 % 0.0 in /  0 mm
08:40 10.7 °F /  -11.8 °C 3.4 °F /  -15.9 °C 1032.1 in /  34946.9 hPa North 18.5 mph /  29.8 km/h 18.5 mph /  29.8 km/h 61 % 0.0 in /  0 mm
08:44 10.6 °F /  -11.9 °C 3.3 °F /  -15.9 °C 1032.1 in /  34946.9 hPa NNW 11.1 mph /  17.9 km/h 11.1 mph /  17.9 km/h 61 % 0.0 in /  0 mm
08:48 10.7 °F /  -11.8 °C 3.2 °F /  -16 °C 1032.1 in /  34946.9 hPa NNW 11.1 mph /  17.9 km/h 11.1 mph /  17.9 km/h 60 % 0.0 in /  0 mm
08:49 10.7 °F /  -11.8 °C 3.3 °F /  -15.9 °C 1032.1 in /  34946.9 hPa North 14.5 mph /  23.3 km/h 14.5 mph /  23.3 km/h 60 % 0.0 in /  0 mm
08:56 10.7 °F /  -11.8 °C 3.3 °F /  -15.9 °C 1032.1 in /  34946.9 hPa NNW 11.1 mph /  17.9 km/h 11.1 mph /  17.9 km/h 60 % 0.0 in /  0 mm
09:01 10.7 °F /  -11.8 °C 3.3 °F /  -15.9 °C 1032.1 in /  34946.9 hPa North 11.3 mph /  18.2 km/h 11.3 mph /  18.2 km/h 60 % 0.0 in /  0 mm
09:02 10.7 °F /  -11.8 °C 3.5 °F /  -15.8 °C 1032.1 in /  34946.9 hPa NNW 13.0 mph /  20.9 km/h 13.0 mph /  20.9 km/h 61 % 0.0 in /  0 mm
09:07 10.9 °F /  -11.7 °C 3.2 °F /  -16 °C 1032.1 in /  34946.9 hPa NNW 11.1 mph /  17.9 km/h 11.1 mph /  17.9 km/h 59 % 0.0 in /  0 mm
09:08 11.1 °F /  -11.6 °C 3.3 °F /  -15.9 °C 1032.1 in /  34946.9 hPa NNW 11.1 mph /  17.9 km/h 11.1 mph /  17.9 km/h 59 % 0.0 in /  0 mm
09:10 11.2 °F /  -11.6 °C 3.2 °F /  -16 °C 1032.1 in /  34946.9 hPa NNW 7.4 mph /  11.9 km/h 7.4 mph /  11.9 km/h 58 % 0.0 in /  0 mm
09:14 11.3 °F /  -11.5 °C 3.3 °F /  -15.9 °C 1032.1 in /  34946.9 hPa North 11.1 mph /  17.9 km/h 11.1 mph /  17.9 km/h 58 % 0.0 in /  0 mm
09:19 11.4 °F /  -11.4 °C 3.4 °F /  -15.9 °C 1032.1 in /  34946.9 hPa North 5.6 mph /  9 km/h 5.6 mph /  9 km/h 58 % 0.0 in /  0 mm
09:22 11.4 °F /  -11.4 °C 3.4 °F /  -15.9 °C 1032.4 in /  34957.1 hPa North 7.4 mph /  11.9 km/h 7.4 mph /  11.9 km/h 58 % 0.0 in /  0 mm
09:25 11.5 °F /  -11.4 °C 3.5 °F /  -15.8 °C 1032.4 in /  34957.1 hPa North 5.6 mph /  9 km/h 5.6 mph /  9 km/h 58 % 0.0 in /  0 mm
09:30 11.7 °F /  -11.3 °C 3.2 °F /  -16 °C 1032.1 in /  34946.9 hPa WNW 9.3 mph /  15 km/h 9.3 mph /  15 km/h 56 % 0.0 in /  0 mm
09:35 11.9 °F /  -11.2 °C 3.7 °F /  -15.7 °C 1032.4 in /  34957.1 hPa NE 5.6 mph /  9 km/h 5.6 mph /  9 km/h 57 % 0.0 in /  0 mm
09:37 11.9 °F /  -11.2 °C 3.7 °F /  -15.7 °C 1032.1 in /  34946.9 hPa WNW 5.6 mph /  9 km/h 5.6 mph /  9 km/h 57 % 0.0 in /  0 mm
09:42 12.2 °F /  -11 °C 3.7 °F /  -15.7 °C 1032.4 in /  34957.1 hPa NNW 5.6 mph /  9 km/h 5.6 mph /  9 km/h 56 % 0.0 in /  0 mm
09:43 12.2 °F /  -11 °C 3.7 °F /  -15.7 °C 1032.4 in /  34957.1 hPa NNW 5.6 mph /  9 km/h 5.6 mph /  9 km/h 56 % 0.0 in /  0 mm
09:48 12.4 °F /  -10.9 °C 3.7 °F /  -15.7 °C 1032.4 in /  34957.1 hPa NNW 3.7 mph /  6 km/h 3.7 mph /  6 km/h 55 % 0.0 in /  0 mm
09:53 12.7 °F /  -10.7 °C 3.9 °F /  -15.6 °C 1032.4 in /  34957.1 hPa Calm     55 % 0.0 in /  0 mm
09:55 12.8 °F /  -10.7 °C 4.2 °F /  -15.4 °C 1032.1 in /  34946.9 hPa Calm     56 % 0.0 in /  0 mm
10:01 13.1 °F /  -10.5 °C 4.4 °F /  -15.3 °C 1032.4 in /  34957.1 hPa NE 3.7 mph /  6 km/h 3.7 mph /  6 km/h 56 % 0.0 in /  0 mm
10:06 13.2 °F /  -10.4 °C 4.1 °F /  -15.5 °C 1032.4 in /  34957.1 hPa North 3.7 mph /  6 km/h 3.7 mph /  6 km/h 54 % 0.0 in /  0 mm
10:07 13.2 °F /  -10.4 °C 4.1 °F /  -15.5 °C 1032.4 in /  34957.1 hPa North 7.4 mph /  11.9 km/h 7.4 mph /  11.9 km/h 54 % 0.0 in /  0 mm
10:08 13.3 °F /  -10.4 °C 4.2 °F /  -15.4 °C 1032.4 in /  34957.1 hPa NNW 5.6 mph /  9 km/h 5.6 mph /  9 km/h 54 % 0.0 in /  0 mm
10:12 13.4 °F /  -10.3 °C 4.1 °F /  -15.5 °C 1032.4 in /  34957.1 hPa NNE 8.0 mph /  12.9 km/h 8.0 mph /  12.9 km/h 53 % 0.0 in /  0 mm
10:18 13.8 °F /  -10.1 °C 4.3 °F /  -15.4 °C 1032.4 in /  34957.1 hPa NNE 11.3 mph /  18.2 km/h 11.3 mph /  18.2 km/h 53 % 0.0 in /  0 mm
10:19 13.8 °F /  -10.1 °C 4.1 °F /  -15.5 °C 1032.4 in /  34957.1 hPa North 13.0 mph /  20.9 km/h 13.0 mph /  20.9 km/h 52 % 0.0 in /  0 mm
10:24 13.9 °F /  -10.1 °C 3.6 °F /  -15.8 °C 1032.4 in /  34957.1 hPa North 9.7 mph /  15.6 km/h 9.7 mph /  15.6 km/h 50 % 0.0 in /  0 mm
10:25 13.9 °F /  -10.1 °C 3.6 °F /  -15.8 °C 1032.4 in /  34957.1 hPa NNW 9.3 mph /  15 km/h 9.3 mph /  15 km/h 50 % 0.0 in /  0 mm
10:27 14.0 °F /  -10 °C 3.7 °F /  -15.7 °C 1032.4 in /  34957.1 hPa NNW 7.4 mph /  11.9 km/h 7.4 mph /  11.9 km/h 50 % 0.0 in /  0 mm
10:31 14.3 °F /  -9.8 °C 4.0 °F /  -15.6 °C 1032.4 in /  34957.1 hPa North 7.4 mph /  11.9 km/h 7.4 mph /  11.9 km/h 50 % 0.0 in /  0 mm
10:36 14.4 °F /  -9.8 °C 2.7 °F /  -16.3 °C 1032.4 in /  34957.1 hPa North 11.1 mph /  17.9 km/h 11.1 mph /  17.9 km/h 45 % 0.0 in /  0 mm
10:41 14.8 °F /  -9.6 °C 4.7 °F /  -15.2 °C 1032.4 in /  34957.1 hPa West 5.6 mph /  9 km/h 5.6 mph /  9 km/h 51 % 0.0 in /  0 mm
10:42 14.8 °F /  -9.6 °C 4.7 °F /  -15.2 °C 1032.4 in /  34957.1 hPa West 5.6 mph /  9 km/h 5.6 mph /  9 km/h 51 % 0.0 in /  0 mm
10:44 14.9 °F /  -9.5 °C 5.7 °F /  -14.6 °C 1032.4 in /  34957.1 hPa West 5.6 mph /  9 km/h 5.6 mph /  9 km/h 54 % 0.0 in /  0 mm
10:49 15.0 °F /  -9.4 °C 6.3 °F /  -14.3 °C 1032.4 in /  34957.1 hPa West 3.7 mph /  6 km/h 3.7 mph /  6 km/h 56 % 0.0 in /  0 mm
10:55 15.2 °F /  -9.3 °C 6.9 °F /  -13.9 °C 1032.4 in /  34957.1 hPa WSW 3.7 mph /  6 km/h 3.7 mph /  6 km/h 58 % 0.0 in /  0 mm
11:00 15.2 °F /  -9.3 °C 7.7 °F /  -13.5 °C 1032.4 in /  34957.1 hPa SW 7.4 mph /  11.9 km/h 7.4 mph /  11.9 km/h 61 % 0.0 in /  0 mm
11:04 15.2 °F /  -9.3 °C 7.9 °F /  -13.4 °C 1032.7 in /  34967.2 hPa SW 5.6 mph /  9 km/h 5.6 mph /  9 km/h 62 % 0.0 in /  0 mm
11:05 15.1 °F /  -9.4 °C 7.9 °F /  -13.4 °C 1032.7 in /  34967.2 hPa SW 5.6 mph /  9 km/h 5.6 mph /  9 km/h 62 % 0.0 in /  0 mm
11:09 15.0 °F /  -9.4 °C 8.0 °F /  -13.3 °C 1032.7 in /  34967.2 hPa SW 6.4 mph /  10.3 km/h 6.4 mph /  10.3 km/h 63 % 0.0 in /  0 mm
11:14 14.8 °F /  -9.6 °C 7.8 °F /  -13.4 °C 1032.4 in /  34957.1 hPa SW 7.4 mph /  11.9 km/h 7.4 mph /  11.9 km/h 63 % 0.0 in /  0 mm
11:15 14.8 °F /  -9.6 °C 7.8 °F /  -13.4 °C 1032.4 in /  34957.1 hPa SW 7.4 mph /  11.9 km/h 7.4 mph /  11.9 km/h 63 % 0.0 in /  0 mm
11:20 14.7 °F /  -9.6 °C 7.7 °F /  -13.5 °C 1032.4 in /  34957.1 hPa SW 9.3 mph /  15 km/h 9.3 mph /  15 km/h 63 % 0.0 in /  0 mm
11:25 14.6 °F /  -9.7 °C 7.3 °F /  -13.7 °C 1032.7 in /  34967.2 hPa WSW 7.4 mph /  11.9 km/h 7.4 mph /  11.9 km/h 62 % 0.0 in /  0 mm
11:26 14.6 °F /  -9.7 °C 7.1 °F /  -13.8 °C 1032.7 in /  34967.2 hPa WSW 8.0 mph /  12.9 km/h 8.0 mph /  12.9 km/h 61 % 0.0 in /  0 mm
11:28 14.6 °F /  -9.7 °C 6.9 °F /  -13.9 °C 1032.7 in /  34967.2 hPa WSW 8.0 mph /  12.9 km/h 8.0 mph /  12.9 km/h 60 % 0.0 in /  0 mm
11:32 14.7 °F /  -9.6 °C 7.2 °F /  -13.8 °C 1032.4 in /  34957.1 hPa WSW 6.4 mph /  10.3 km/h 6.4 mph /  10.3 km/h 61 % 0.0 in /  0 mm
11:37 14.8 °F /  -9.6 °C 8.3 °F /  -13.2 °C 1032.7 in /  34967.2 hPa SW 9.3 mph /  15 km/h 9.3 mph /  15 km/h 65 % 0.0 in /  0 mm
11:38 14.8 °F /  -9.6 °C 8.3 °F /  -13.2 °C 1032.7 in /  34967.2 hPa SW 8.0 mph /  12.9 km/h 8.0 mph /  12.9 km/h 65 % 0.0 in /  0 mm
11:43 14.8 °F /  -9.6 °C 8.6 °F /  -13 °C 1032.7 in /  34967.2 hPa SW 9.3 mph /  15 km/h 9.3 mph /  15 km/h 66 % 0.0 in /  0 mm
11:46 14.9 °F /  -9.5 °C 8.8 °F /  -12.9 °C 1032.7 in /  34967.2 hPa SW 7.4 mph /  11.9 km/h 7.4 mph /  11.9 km/h 67 % 0.0 in /  0 mm
11:49 14.9 °F /  -9.5 °C 8.9 °F /  -12.8 °C 1032.4 in /  34957.1 hPa SW 9.3 mph /  15 km/h 9.3 mph /  15 km/h 67 % 0.0 in /  0 mm
11:54 15.1 °F /  -9.4 °C 9.2 °F /  -12.7 °C 1032.4 in /  34957.1 hPa SW 9.3 mph /  15 km/h 9.3 mph /  15 km/h 68 % 0.0 in /  0 mm
11:58 15.1 °F /  -9.4 °C 9.2 °F /  -12.7 °C 1032.4 in /  34957.1 hPa WSW 9.3 mph /  15 km/h 9.3 mph /  15 km/h 68 % 0.0 in /  0 mm
11:59 15.0 °F /  -9.4 °C 9.1 °F /  -12.7 °C 1032.4 in /  34957.1 hPa WSW 5.6 mph /  9 km/h 5.6 mph /  9 km/h 68 % 0.0 in /  0 mm
12:04 15.1 °F /  -9.4 °C 8.8 °F /  -12.9 °C 1032.4 in /  34957.1 hPa SW 5.6 mph /  9 km/h 5.6 mph /  9 km/h 66 % 0.0 in /  0 mm
12:08 15.1 °F /  -9.4 °C 8.8 °F /  -12.9 °C 1032.4 in /  34957.1 hPa SW 6.4 mph /  10.3 km/h 6.4 mph /  10.3 km/h 66 % 0.0 in /  0 mm
12:13 15.1 °F /  -9.4 °C 8.8 °F /  -12.9 °C 1032.4 in /  34957.1 hPa SW 5.6 mph /  9 km/h 5.6 mph /  9 km/h 66 % 0.0 in /  0 mm
12:16 15.2 °F /  -9.3 °C 8.8 °F /  -12.9 °C 1032.4 in /  34957.1 hPa SW 3.2 mph /  5.1 km/h 3.2 mph /  5.1 km/h 66 % 0.0 in /  0 mm
12:21 15.4 °F /  -9.2 °C 9.1 °F /  -12.7 °C 1032.1 in /  34946.9 hPa SW 5.6 mph /  9 km/h 5.6 mph /  9 km/h 66 % 0.0 in /  0 mm
12:26 15.6 °F /  -9.1 °C 9.2 °F /  -12.7 °C 1032.1 in /  34946.9 hPa SW 5.6 mph /  9 km/h 5.6 mph /  9 km/h 66 % 0.0 in /  0 mm
12:29 15.7 °F /  -9.1 °C 9.8 °F /  -12.3 °C 1032.1 in /  34946.9 hPa SW 5.6 mph /  9 km/h 5.6 mph /  9 km/h 68 % 0.0 in /  0 mm
12:33 15.7 °F /  -9.1 °C 9.8 °F /  -12.3 °C 1032.1 in /  34946.9 hPa SW 5.6 mph /  9 km/h 5.6 mph /  9 km/h 68 % 0.0 in /  0 mm
12:38 15.7 °F /  -9.1 °C 9.8 °F /  -12.3 °C 1032.1 in /  34946.9 hPa SW 3.7 mph /  6 km/h 3.7 mph /  6 km/h 68 % 0.0 in /  0 mm
12:39 15.7 °F /  -9.1 °C 9.8 °F /  -12.3 °C 1031.7 in /  34933.4 hPa SW 5.6 mph /  9 km/h 5.6 mph /  9 km/h 68 % 0.0 in /  0 mm
12:40 15.8 °F /  -9 °C 10.1 °F /  -12.2 °C 1031.7 in /  34933.4 hPa SW 5.6 mph /  9 km/h 5.6 mph /  9 km/h 69 % 0.0 in /  0 mm
12:45 15.8 °F /  -9 °C 9.9 °F /  -12.3 °C 1031.7 in /  34933.4 hPa SW 3.7 mph /  6 km/h 3.7 mph /  6 km/h 68 % 0.0 in /  0 mm
12:46 15.9 °F /  -8.9 °C 10.0 °F /  -12.2 °C 1031.7 in /  34933.4 hPa SW 1.9 mph /  3.1 km/h   68 % 0.0 in /  0 mm
12:53 16.1 °F /  -8.8 °C 10.2 °F /  -12.1 °C 1031.7 in /  34933.4 hPa Calm     68 % 0.0 in /  0 mm
12:59 16.2 °F /  -8.8 °C 10.3 °F /  -12.1 °C 1031.4 in /  34923.2 hPa SW 5.6 mph /  9 km/h 5.6 mph /  9 km/h 68 % 0.0 in /  0 mm
13:02 16.2 °F /  -8.8 °C 10.3 °F /  -12.1 °C 1031.4 in /  34923.2 hPa SW 3.7 mph /  6 km/h 3.7 mph /  6 km/h 68 % 0.0 in /  0 mm
13:04 16.2 °F /  -8.8 °C 10.3 °F /  -12.1 °C 1031.4 in /  34923.2 hPa SW 3.7 mph /  6 km/h 3.7 mph /  6 km/h 68 % 0.0 in /  0 mm
13:09 16.2 °F /  -8.8 °C 10.3 °F /  -12.1 °C 1031.4 in /  34923.2 hPa SW 3.7 mph /  6 km/h 3.7 mph /  6 km/h 68 % 0.0 in /  0 mm
13:10 16.2 °F /  -8.8 °C 10.3 °F /  -12.1 °C 1031.4 in /  34923.2 hPa SW 3.7 mph /  6 km/h 3.7 mph /  6 km/h 68 % 0.0 in /  0 mm
13:15 16.3 °F /  -8.7 °C 10.6 °F /  -11.9 °C 1031.0 in /  34909.7 hPa Calm     69 % 0.0 in /  0 mm
13:20 16.2 °F /  -8.8 °C 10.5 °F /  -11.9 °C 1031.0 in /  34909.7 hPa Calm     69 % 0.0 in /  0 mm
13:23 16.2 °F /  -8.8 °C 10.3 °F /  -12.1 °C 1031.0 in /  34909.7 hPa Calm     68 % 0.0 in /  0 mm
13:26 16.2 °F /  -8.8 °C 10.4 °F /  -12 °C 1031.0 in /  34909.7 hPa Calm     69 % 0.0 in /  0 mm
13:30 16.2 °F /  -8.8 °C 10.3 °F /  -12.1 °C 1031.0 in /  34909.7 hPa Calm     68 % 0.0 in /  0 mm
13:35 16.2 °F /  -8.8 °C 10.3 °F /  -12.1 °C 1030.7 in /  34899.5 hPa Calm     68 % 0.0 in /  0 mm
13:39 16.2 °F /  -8.8 °C 10.3 °F /  -12.1 °C 1030.7 in /  34899.5 hPa Calm     68 % 0.0 in /  0 mm
13:41 16.3 °F /  -8.7 °C 10.3 °F /  -12.1 °C 1030.7 in /  34899.5 hPa Calm     68 % 0.0 in /  0 mm
13:44 16.4 °F /  -8.7 °C 10.3 °F /  -12.1 °C 1030.7 in /  34899.5 hPa Calm     67 % 0.0 in /  0 mm
13:46 16.4 °F /  -8.7 °C 9.6 °F /  -12.4 °C 1030.7 in /  34899.5 hPa Calm     64 % 0.0 in /  0 mm
13:51 16.4 °F /  -8.7 °C 9.8 °F /  -12.3 °C 1030.7 in /  34899.5 hPa Calm     65 % 0.0 in /  0 mm
13:53 16.4 °F /  -8.7 °C 9.8 °F /  -12.3 °C 1030.7 in /  34899.5 hPa Calm     65 % 0.0 in /  0 mm
13:58 16.2 °F /  -8.8 °C 10.3 °F /  -12.1 °C 1030.4 in /  34889.3 hPa SW 3.7 mph /  6 km/h 3.7 mph /  6 km/h 68 % 0.0 in /  0 mm
14:03 16.4 °F /  -8.7 °C 10.9 °F /  -11.7 °C 1030.4 in /  34889.3 hPa SW 1.9 mph /  3.1 km/h 1.9 mph /  3.1 km/h 70 % 0.0 in /  0 mm
14:08 16.7 °F /  -8.5 °C 10.9 °F /  -11.7 °C 1030.4 in /  34889.3 hPa Calm     69 % 0.0 in /  0 mm
14:13 16.8 °F /  -8.4 °C 11.1 °F /  -11.6 °C 1030.0 in /  34875.8 hPa Calm     69 % 0.0 in /  0 mm
14:14 16.8 °F /  -8.4 °C 11.1 °F /  -11.6 °C 1030.0 in /  34875.8 hPa Calm     69 % 0.0 in /  0 mm
14:25 16.9 °F /  -8.4 °C 10.6 °F /  -11.9 °C 1030.0 in /  34875.8 hPa SW 1.9 mph /  3.1 km/h   66 % 0.0 in /  0 mm
14:26 17.0 °F /  -8.3 °C 10.6 °F /  -11.9 °C 1030.0 in /  34875.8 hPa SW 1.9 mph /  3.1 km/h 1.9 mph /  3.1 km/h 66 % 0.0 in /  0 mm
14:31 17.0 °F /  -8.3 °C 9.7 °F /  -12.4 °C 1030.0 in /  34875.8 hPa SW 5.6 mph /  9 km/h 5.6 mph /  9 km/h 62 % 0.0 in /  0 mm
14:32 17.1 °F /  -8.3 °C 9.9 °F /  -12.3 °C 1030.0 in /  34875.8 hPa SW 5.6 mph /  9 km/h 5.6 mph /  9 km/h 63 % 0.0 in /  0 mm
14:35 17.1 °F /  -8.3 °C 10.2 °F /  -12.1 °C 1030.0 in /  34875.8 hPa SW 3.7 mph /  6 km/h 3.7 mph /  6 km/h 64 % 0.0 in /  0 mm
14:44 17.2 °F /  -8.2 °C 11.1 °F /  -11.6 °C 1030.0 in /  34875.8 hPa SW 3.7 mph /  6 km/h 3.7 mph /  6 km/h 67 % 0.0 in /  0 mm
14:46 17.2 °F /  -8.2 °C 11.3 °F /  -11.5 °C 1029.7 in /  34865.6 hPa SW 3.7 mph /  6 km/h 3.7 mph /  6 km/h 68 % 0.0 in /  0 mm
14:51 16.9 °F /  -8.4 °C 11.0 °F /  -11.7 °C 1029.7 in /  34865.6 hPa SW 3.7 mph /  6 km/h 3.7 mph /  6 km/h 68 % 0.0 in /  0 mm
14:53 16.7 °F /  -8.5 °C 10.7 °F /  -11.8 °C 1029.7 in /  34865.6 hPa SW 3.7 mph /  6 km/h 3.7 mph /  6 km/h 68 % 0.0 in /  0 mm
14:57 16.3 °F /  -8.7 °C 10.4 °F /  -12 °C 1029.7 in /  34865.6 hPa Calm     68 % 0.0 in /  0 mm
15:02 16.3 °F /  -8.7 °C 11.0 °F /  -11.7 °C 1029.7 in /  34865.6 hPa SW 1.9 mph /  3.1 km/h 1.9 mph /  3.1 km/h 71 % 0.0 in /  0 mm
15:07 16.3 °F /  -8.7 °C 10.6 °F /  -11.9 °C 1029.7 in /  34865.6 hPa SW 1.9 mph /  3.1 km/h 1.9 mph /  3.1 km/h 69 % 0.0 in /  0 mm
15:10 16.3 °F /  -8.7 °C 11.1 °F /  -11.6 °C 1029.7 in /  34865.6 hPa SW 3.7 mph /  6 km/h 3.7 mph /  6 km/h 71 % 0.0 in /  0 mm
15:18 16.3 °F /  -8.7 °C 11.3 °F /  -11.5 °C 1029.7 in /  34865.6 hPa SW 3.7 mph /  6 km/h 3.7 mph /  6 km/h 72 % 0.0 in /  0 mm
15:20 16.2 °F /  -8.8 °C 10.7 °F /  -11.8 °C 1029.7 in /  34865.6 hPa SW 3.7 mph /  6 km/h 3.7 mph /  6 km/h 70 % 0.0 in /  0 mm
15:23 16.2 °F /  -8.8 °C 11.1 °F /  -11.6 °C 1029.7 in /  34865.6 hPa SW 3.7 mph /  6 km/h 3.7 mph /  6 km/h 72 % 0.0 in /  0 mm
15:33 16.0 °F /  -8.9 °C 10.9 °F /  -11.7 °C 1029.7 in /  34865.6 hPa Calm     72 % 0.0 in /  0 mm
15:34 16.0 °F /  -8.9 °C 10.9 °F /  -11.7 °C 1029.7 in /  34865.6 hPa Calm     72 % 0.0 in /  0 mm
15:35 16.1 °F /  -8.8 °C 11.0 °F /  -11.7 °C 1029.7 in /  34865.6 hPa Calm     72 % 0.0 in /  0 mm
15:40 15.9 °F /  -8.9 °C 9.1 °F /  -12.7 °C 1029.7 in /  34865.6 hPa Calm   0.2 mph /  0.3 km/h 64 % 0.0 in /  0 mm
15:43 15.9 °F /  -8.9 °C 8.1 °F /  -13.3 °C 1029.7 in /  34865.6 hPa Calm     60 % 0.0 in /  0 mm
15:48 16.2 °F /  -8.8 °C 8.4 °F /  -13.1 °C 1029.7 in /  34865.6 hPa Calm     60 % 0.0 in /  0 mm
15:51 16.3 °F /  -8.7 °C 8.1 °F /  -13.3 °C 1029.7 in /  34865.6 hPa SW 1.9 mph /  3.1 km/h 1.9 mph /  3.1 km/h 58 % 0.0 in /  0 mm
15:54 16.4 °F /  -8.7 °C 7.9 °F /  -13.4 °C 1029.7 in /  34865.6 hPa Calm     57 % 0.0 in /  0 mm
15:59 16.7 °F /  -8.5 °C 6.8 °F /  -14 °C 1029.7 in /  34865.6 hPa Calm     52 % 0.0 in /  0 mm
16:00 16.8 °F /  -8.4 °C 6.8 °F /  -14 °C 1029.7 in /  34865.6 hPa Calm     52 % 0.0 in /  0 mm
16:05 17.0 °F /  -8.3 °C 7.6 °F /  -13.6 °C 1029.7 in /  34865.6 hPa Calm     54 % 0.0 in /  0 mm
16:10 17.1 °F /  -8.3 °C 9.7 °F /  -12.4 °C 1029.7 in /  34865.6 hPa SW 3.7 mph /  6 km/h   62 % 0.0 in /  0 mm
16:11 17.2 °F /  -8.2 °C 10.1 °F /  -12.2 °C 1029.7 in /  34865.6 hPa Calm     63 % 0.0 in /  0 mm
16:16 17.1 °F /  -8.3 °C 9.7 °F /  -12.4 °C 1029.7 in /  34865.6 hPa SW 3.7 mph /  6 km/h 3.7 mph /  6 km/h 62 % 0.0 in /  0 mm
16:18 16.9 °F /  -8.4 °C 9.4 °F /  -12.6 °C 1029.7 in /  34865.6 hPa SW 1.9 mph /  3.1 km/h 1.9 mph /  3.1 km/h 61 % 0.0 in /  0 mm
16:20 16.9 °F /  -8.4 °C 9.4 °F /  -12.6 °C 1029.7 in /  34865.6 hPa SW 1.9 mph /  3.1 km/h 1.9 mph /  3.1 km/h 61 % 0.0 in /  0 mm
16:23 16.9 °F /  -8.4 °C 9.6 °F /  -12.4 °C 1029.7 in /  34865.6 hPa SW 3.2 mph /  5.1 km/h 3.2 mph /  5.1 km/h 62 % 0.0 in /  0 mm
16:28 16.8 °F /  -8.4 °C 9.5 °F /  -12.5 °C 1029.7 in /  34865.6 hPa SW 1.9 mph /  3.1 km/h   62 % 0.0 in /  0 mm
16:33 17.0 °F /  -8.3 °C 8.4 °F /  -13.1 °C 1029.7 in /  34865.6 hPa SW 1.9 mph /  3.1 km/h 1.9 mph /  3.1 km/h 57 % 0.0 in /  0 mm
16:36 17.2 °F /  -8.2 °C 8.1 °F /  -13.3 °C 1029.7 in /  34865.6 hPa Calm     55 % 0.0 in /  0 mm
16:41 16.9 °F /  -8.4 °C 7.0 °F /  -13.9 °C 1029.7 in /  34865.6 hPa SSW 3.7 mph /  6 km/h 3.7 mph /  6 km/h 52 % 0.0 in /  0 mm
16:44 17.0 °F /  -8.3 °C 7.9 °F /  -13.4 °C 1029.7 in /  34865.6 hPa SSW 1.6 mph /  2.6 km/h 1.6 mph /  2.6 km/h 55 % 0.0 in /  0 mm
16:49 16.8 °F /  -8.4 °C 6.6 °F /  -14.1 °C 1029.7 in /  34865.6 hPa SSW 5.6 mph /  9 km/h 5.6 mph /  9 km/h 51 % 0.0 in /  0 mm
16:50 16.8 °F /  -8.4 °C 6.8 °F /  -14 °C 1029.7 in /  34865.6 hPa SSW 3.7 mph /  6 km/h 3.7 mph /  6 km/h 52 % 0.0 in /  0 mm
16:51 16.7 °F /  -8.5 °C 6.8 °F /  -14 °C 1029.7 in /  34865.6 hPa SSW 1.9 mph /  3.1 km/h   52 % 0.0 in /  0 mm
16:56 16.8 °F /  -8.4 °C 7.9 °F /  -13.4 °C 1029.7 in /  34865.6 hPa SSW 1.9 mph /  3.1 km/h 1.9 mph /  3.1 km/h 56 % 0.0 in /  0 mm
16:58 16.7 °F /  -8.5 °C 7.3 °F /  -13.7 °C 1029.7 in /  34865.6 hPa SSW 1.9 mph /  3.1 km/h   54 % 0.0 in /  0 mm
17:00 16.7 °F /  -8.5 °C 7.1 °F /  -13.8 °C 1029.7 in /  34865.6 hPa Calm   1.6 mph /  2.6 km/h 53 % 0.0 in /  0 mm
17:05 17.0 °F /  -8.3 °C 9.4 °F /  -12.6 °C 1030.0 in /  34875.8 hPa Calm     61 % 0.0 in /  0 mm
17:06 17.0 °F /  -8.3 °C 9.4 °F /  -12.6 °C 1030.0 in /  34875.8 hPa SSW 5.6 mph /  9 km/h 5.6 mph /  9 km/h 61 % 0.0 in /  0 mm
17:07 17.0 °F /  -8.3 °C 9.4 °F /  -12.6 °C 1030.0 in /  34875.8 hPa SSW 5.6 mph /  9 km/h 5.6 mph /  9 km/h 61 % 0.0 in /  0 mm
17:11 16.7 °F /  -8.5 °C 7.6 °F /  -13.6 °C 1030.0 in /  34875.8 hPa Calm     55 % 0.0 in /  0 mm
17:13 16.7 °F /  -8.5 °C 7.6 °F /  -13.6 °C 1029.7 in /  34865.6 hPa Calm     55 % 0.0 in /  0 mm
17:17 16.9 °F /  -8.4 °C 8.1 °F /  -13.3 °C 1029.7 in /  34865.6 hPa Calm     56 % 0.0 in /  0 mm
17:22 17.0 °F /  -8.3 °C 7.3 °F /  -13.7 °C 1030.0 in /  34875.8 hPa Calm     53 % 0.0 in /  0 mm
17:23 17.0 °F /  -8.3 °C 7.1 °F /  -13.8 °C 1029.7 in /  34865.6 hPa Calm     52 % 0.0 in /  0 mm
17:28 17.1 °F /  -8.3 °C 6.0 °F /  -14.4 °C 1029.7 in /  34865.6 hPa East 1.6 mph /  2.6 km/h 1.6 mph /  2.6 km/h 48 % 0.0 in /  0 mm
17:29 17.1 °F /  -8.3 °C 6.0 °F /  -14.4 °C 1029.7 in /  34865.6 hPa East 3.7 mph /  6 km/h 3.7 mph /  6 km/h 48 % 0.0 in /  0 mm
17:34 17.3 °F /  -8.2 °C 7.1 °F /  -13.8 °C 1029.7 in /  34865.6 hPa Calm     51 % 0.0 in /  0 mm
17:36 17.3 °F /  -8.2 °C 7.9 °F /  -13.4 °C 1029.7 in /  34865.6 hPa Calm     54 % 0.0 in /  0 mm
17:41 17.5 °F /  -8.1 °C 7.8 °F /  -13.4 °C 1029.7 in /  34865.6 hPa East 3.7 mph /  6 km/h 3.7 mph /  6 km/h 53 % 0.0 in /  0 mm
17:43 17.5 °F /  -8.1 °C 6.9 °F /  -13.9 °C 1029.7 in /  34865.6 hPa East 3.7 mph /  6 km/h 3.7 mph /  6 km/h 50 % 0.0 in /  0 mm
17:47 17.6 °F /  -8 °C 7.3 °F /  -13.7 °C 1029.7 in /  34865.6 hPa SE 3.7 mph /  6 km/h 3.7 mph /  6 km/h 51 % 0.0 in /  0 mm
17:52 17.6 °F /  -8 °C 7.8 °F /  -13.4 °C 1029.7 in /  34865.6 hPa South 5.6 mph /  9 km/h 5.6 mph /  9 km/h 53 % 0.0 in /  0 mm
17:53 17.6 °F /  -8 °C 7.8 °F /  -13.4 °C 1029.7 in /  34865.6 hPa South 5.6 mph /  9 km/h 5.6 mph /  9 km/h 53 % 0.0 in /  0 mm
17:55 17.6 °F /  -8 °C 8.1 °F /  -13.3 °C 1029.7 in /  34865.6 hPa SSW 5.6 mph /  9 km/h 5.6 mph /  9 km/h 54 % 0.0 in /  0 mm
17:58 17.5 °F /  -8.1 °C 8.6 °F /  -13 °C 1029.7 in /  34865.6 hPa SSW 5.6 mph /  9 km/h 5.6 mph /  9 km/h 56 % 0.0 in /  0 mm
18:03 17.3 °F /  -8.2 °C 8.9 °F /  -12.8 °C 1029.7 in /  34865.6 hPa WSW 6.4 mph /  10.3 km/h 6.4 mph /  10.3 km/h 58 % 0.0 in /  0 mm
18:05 17.2 °F /  -8.2 °C 8.3 °F /  -13.2 °C 1029.7 in /  34865.6 hPa WSW 5.6 mph /  9 km/h 5.6 mph /  9 km/h 56 % 0.0 in /  0 mm
18:08 17.1 °F /  -8.3 °C 7.9 °F /  -13.4 °C 1030.0 in /  34875.8 hPa Calm     55 % 0.0 in /  0 mm
18:10 16.9 °F /  -8.4 °C 9.1 °F /  -12.7 °C 1030.0 in /  34875.8 hPa South 5.6 mph /  9 km/h 5.6 mph /  9 km/h 60 % 0.0 in /  0 mm
18:17 16.7 °F /  -8.5 °C 8.7 °F /  -12.9 °C 1030.0 in /  34875.8 hPa WSW 5.6 mph /  9 km/h 5.6 mph /  9 km/h 59 % 0.0 in /  0 mm
18:22 16.6 °F /  -8.6 °C 9.0 °F /  -12.8 °C 1030.0 in /  34875.8 hPa WSW 3.7 mph /  6 km/h 3.7 mph /  6 km/h 61 % 0.0 in /  0 mm
18:23 16.5 °F /  -8.6 °C 8.9 °F /  -12.8 °C 1030.0 in /  34875.8 hPa WSW 3.7 mph /  6 km/h 3.7 mph /  6 km/h 61 % 0.0 in /  0 mm
18:28 16.3 °F /  -8.7 °C 9.9 °F /  -12.3 °C 1030.0 in /  34875.8 hPa WSW 3.7 mph /  6 km/h 3.7 mph /  6 km/h 66 % 0.0 in /  0 mm
18:33 16.0 °F /  -8.9 °C 9.2 °F /  -12.7 °C 1030.0 in /  34875.8 hPa Calm     64 % 0.0 in /  0 mm
18:34 16.0 °F /  -8.9 °C 9.2 °F /  -12.7 °C 1030.0 in /  34875.8 hPa Calm     64 % 0.0 in /  0 mm
18:35 15.9 °F /  -8.9 °C 9.6 °F /  -12.4 °C 1030.4 in /  34889.3 hPa SSE 3.2 mph /  5.1 km/h 3.2 mph /  5.1 km/h 66 % 0.0 in /  0 mm
18:40 15.9 °F /  -8.9 °C 9.6 °F /  -12.4 °C 1030.0 in /  34875.8 hPa Calm     66 % 0.0 in /  0 mm
18:46 15.8 °F /  -9 °C 9.0 °F /  -12.8 °C 1030.0 in /  34875.8 hPa Calm     64 % 0.0 in /  0 mm
18:47 15.8 °F /  -9 °C 9.0 °F /  -12.8 °C 1030.0 in /  34875.8 hPa Calm     64 % 0.0 in /  0 mm
18:51 15.8 °F /  -9 °C 8.5 °F /  -13.1 °C 1030.0 in /  34875.8 hPa Calm     62 % 0.0 in /  0 mm
18:54 15.8 °F /  -9 °C 8.5 °F /  -13.1 °C 1030.4 in /  34889.3 hPa Calm     62 % 0.0 in /  0 mm
18:59 15.7 °F /  -9.1 °C 8.2 °F /  -13.2 °C 1030.0 in /  34875.8 hPa Calm     61 % 0.0 in /  0 mm
19:02 15.7 °F /  -9.1 °C 7.9 °F /  -13.4 °C 1030.0 in /  34875.8 hPa Calm     60 % 0.0 in /  0 mm
19:07 15.7 °F /  -9.1 °C 7.7 °F /  -13.5 °C 1030.0 in /  34875.8 hPa NW 5.6 mph /  9 km/h 5.6 mph /  9 km/h 59 % 0.0 in /  0 mm
19:10 15.8 °F /  -9 °C 7.5 °F /  -13.6 °C 1030.4 in /  34889.3 hPa NW 9.3 mph /  15 km/h 9.3 mph /  15 km/h 58 % 0.0 in /  0 mm
19:15 15.8 °F /  -9 °C 7.3 °F /  -13.7 °C 1030.0 in /  34875.8 hPa NW 13.0 mph /  20.9 km/h 13.0 mph /  20.9 km/h 57 % 0.0 in /  0 mm
19:16 15.8 °F /  -9 °C 7.1 °F /  -13.8 °C 1030.0 in /  34875.8 hPa NW 14.5 mph /  23.3 km/h 14.5 mph /  23.3 km/h 56 % 0.0 in /  0 mm
19:21 16.0 °F /  -8.9 °C 6.9 °F /  -13.9 °C 1030.0 in /  34875.8 hPa NW 9.3 mph /  15 km/h 9.3 mph /  15 km/h 55 % 0.0 in /  0 mm
19:26 16.3 °F /  -8.7 °C 6.7 °F /  -14.1 °C 1030.0 in /  34875.8 hPa WNW 9.3 mph /  15 km/h 9.3 mph /  15 km/h 53 % 0.0 in /  0 mm
19:27 16.4 °F /  -8.7 °C 6.5 °F /  -14.2 °C 1030.0 in /  34875.8 hPa WNW 6.4 mph /  10.3 km/h 6.4 mph /  10.3 km/h 52 % 0.0 in /  0 mm
19:29 16.5 °F /  -8.6 °C 6.1 °F /  -14.4 °C 1030.0 in /  34875.8 hPa WNW 8.0 mph /  12.9 km/h 8.0 mph /  12.9 km/h 50 % 0.0 in /  0 mm
19:34 16.8 °F /  -8.4 °C 6.8 °F /  -14 °C 1030.0 in /  34875.8 hPa West 7.4 mph /  11.9 km/h 7.4 mph /  11.9 km/h 52 % 0.0 in /  0 mm
19:35 16.8 °F /  -8.4 °C 7.2 °F /  -13.8 °C 1030.0 in /  34875.8 hPa WNW 7.4 mph /  11.9 km/h 7.4 mph /  11.9 km/h 53 % 0.0 in /  0 mm
19:38 16.9 °F /  -8.4 °C 7.6 °F /  -13.6 °C 1030.0 in /  34875.8 hPa WNW 8.0 mph /  12.9 km/h 8.0 mph /  12.9 km/h 54 % 0.0 in /  0 mm
19:41 17.2 °F /  -8.2 °C 8.1 °F /  -13.3 °C 1030.0 in /  34875.8 hPa NNW 18.5 mph /  29.8 km/h 18.5 mph /  29.8 km/h 55 % 0.0 in /  0 mm
19:45 17.5 °F /  -8.1 °C 8.4 °F /  -13.1 °C 1029.7 in /  34865.6 hPa NNW 12.9 mph /  20.8 km/h 20.9 mph /  33.6 km/h 55 % 0.0 in /  0 mm
19:46 17.9 °F /  -7.8 °C 9.0 °F /  -12.8 °C 1029.7 in /  34865.6 hPa NNE 24.1 mph /  38.8 km/h 24.1 mph /  38.8 km/h 56 % 0.0 in /  0 mm
19:52 19.0 °F /  -7.2 °C 9.5 °F /  -12.5 °C 1030.0 in /  34875.8 hPa NE 24.1 mph /  38.8 km/h 24.1 mph /  38.8 km/h 54 % 0.0 in /  0 mm
19:57 18.8 °F /  -7.3 °C 9.1 °F /  -12.7 °C 1030.0 in /  34875.8 hPa NE 24.1 mph /  38.8 km/h 24.1 mph /  38.8 km/h 53 % 0.0 in /  0 mm
19:58 18.8 °F /  -7.3 °C 9.1 °F /  -12.7 °C 1030.0 in /  34875.8 hPa NE 25.9 mph /  41.7 km/h 25.9 mph /  41.7 km/h 53 % 0.0 in /  0 mm
20:03 18.2 °F /  -7.7 °C 8.2 °F /  -13.2 °C 1030.0 in /  34875.8 hPa ENE 22.2 mph /  35.7 km/h 22.2 mph /  35.7 km/h 52 % 0.0 in /  0 mm
20:09 18.1 °F /  -7.7 °C 8.9 °F /  -12.8 °C 1030.0 in /  34875.8 hPa North 29.6 mph /  47.6 km/h 29.6 mph /  47.6 km/h 55 % 0.0 in /  0 mm
20:10 18.3 °F /  -7.6 °C 9.1 °F /  -12.7 °C 1030.0 in /  34875.8 hPa ENE 31.5 mph /  50.7 km/h 31.5 mph /  50.7 km/h 55 % 0.0 in /  0 mm
20:15 19.4 °F /  -7 °C 9.3 °F /  -12.6 °C 1030.0 in /  34875.8 hPa NNE 31.5 mph /  50.7 km/h 31.5 mph /  50.7 km/h 52 % 0.0 in /  0 mm
20:17 19.7 °F /  -6.8 °C 9.8 °F /  -12.3 °C 1030.0 in /  34875.8 hPa NNW 27.8 mph /  44.7 km/h 27.8 mph /  44.7 km/h 53 % 0.0 in /  0 mm
20:22 20.2 °F /  -6.6 °C 10.0 °F /  -12.2 °C 1029.7 in /  34865.6 hPa NNW 29.6 mph /  47.6 km/h 29.6 mph /  47.6 km/h 52 % 0.0 in /  0 mm
20:23 20.2 °F /  -6.6 °C 9.8 °F /  -12.3 °C 1029.7 in /  34865.6 hPa NNW 24.1 mph /  38.8 km/h 24.1 mph /  38.8 km/h 51 % 0.0 in /  0 mm
20:28 19.2 °F /  -7.1 °C 9.7 °F /  -12.4 °C 1030.0 in /  34875.8 hPa NNE 18.5 mph /  29.8 km/h 18.5 mph /  29.8 km/h 54 % 0.0 in /  0 mm
20:33 18.4 °F /  -7.6 °C 8.9 °F /  -12.8 °C 1030.0 in /  34875.8 hPa NE 19.3 mph /  31.1 km/h 19.3 mph /  31.1 km/h 54 % 0.0 in /  0 mm
20:37 17.7 °F /  -7.9 °C 8.0 °F /  -13.3 °C 1030.0 in /  34875.8 hPa NE 18.5 mph /  29.8 km/h 18.5 mph /  29.8 km/h 53 % 0.0 in /  0 mm
20:43 17.0 °F /  -8.3 °C 7.9 °F /  -13.4 °C 1030.0 in /  34875.8 hPa NNE 18.5 mph /  29.8 km/h 18.5 mph /  29.8 km/h 55 % 0.0 in /  0 mm
20:49 16.8 °F /  -8.4 °C 8.2 °F /  -13.2 °C 1029.7 in /  34865.6 hPa North 13.0 mph /  20.9 km/h 13.0 mph /  20.9 km/h 57 % 0.0 in /  0 mm
20:54 16.8 °F /  -8.4 °C 8.3 °F /  -13.2 °C 1030.0 in /  34875.8 hPa NNE 14.8 mph /  23.8 km/h 14.8 mph /  23.8 km/h 57 % 0.0 in /  0 mm
20:59 16.8 °F /  -8.4 °C 8.3 °F /  -13.2 °C 1029.7 in /  34865.6 hPa ENE 11.1 mph /  17.9 km/h 11.1 mph /  17.9 km/h 57 % 0.0 in /  0 mm
21:02 17.2 °F /  -8.2 °C 9.1 °F /  -12.7 °C 1030.0 in /  34875.8 hPa NE 18.5 mph /  29.8 km/h 18.5 mph /  29.8 km/h 59 % 0.0 in /  0 mm
21:04 17.3 °F /  -8.2 °C 8.9 °F /  -12.8 °C 1030.0 in /  34875.8 hPa ENE 16.7 mph /  26.9 km/h 16.7 mph /  26.9 km/h 58 % 0.0 in /  0 mm
21:15 17.3 °F /  -8.2 °C 8.7 °F /  -12.9 °C 1030.0 in /  34875.8 hPa NE 4.8 mph /  7.7 km/h 12.9 mph /  20.8 km/h 57 % 0.0 in /  0 mm
21:16 17.3 °F /  -8.2 °C 8.7 °F /  -12.9 °C 1029.7 in /  34865.6 hPa NE 11.1 mph /  17.9 km/h 11.1 mph /  17.9 km/h 57 % 0.0 in /  0 mm
21:21 16.9 °F /  -8.4 °C 9.1 °F /  -12.7 °C 1029.7 in /  34865.6 hPa North 11.1 mph /  17.9 km/h 11.1 mph /  17.9 km/h 60 % 0.0 in /  0 mm
21:22 16.9 °F /  -8.4 °C 9.1 °F /  -12.7 °C 1029.7 in /  34865.6 hPa North 14.8 mph /  23.8 km/h 14.8 mph /  23.8 km/h 60 % 0.0 in /  0 mm
21:24 16.8 °F /  -8.4 °C 8.8 °F /  -12.9 °C 1029.7 in /  34865.6 hPa NE 11.3 mph /  18.2 km/h 11.3 mph /  18.2 km/h 59 % 0.0 in /  0 mm
21:27 17.1 °F /  -8.3 °C 8.8 °F /  -12.9 °C 1029.7 in /  34865.6 hPa NE 14.8 mph /  23.8 km/h 14.8 mph /  23.8 km/h 58 % 0.0 in /  0 mm
21:35 17.7 °F /  -7.9 °C 9.3 °F /  -12.6 °C 1029.7 in /  34865.6 hPa ENE 13.0 mph /  20.9 km/h 13.0 mph /  20.9 km/h 58 % 0.0 in /  0 mm
21:40 17.4 °F /  -8.1 °C 9.8 °F /  -12.3 °C 1029.7 in /  34865.6 hPa Calm     61 % 0.0 in /  0 mm
21:41 17.3 °F /  -8.2 °C 9.7 °F /  -12.4 °C 1029.7 in /  34865.6 hPa Calm     61 % 0.0 in /  0 mm
21:46 17.2 °F /  -8.2 °C 9.9 °F /  -12.3 °C 1029.7 in /  34865.6 hPa Calm     62 % 0.0 in /  0 mm
21:47 17.2 °F /  -8.2 °C 9.9 °F /  -12.3 °C 1029.7 in /  34865.6 hPa Calm     62 % 0.0 in /  0 mm
21:52 17.3 °F /  -8.2 °C 10.0 °F /  -12.2 °C 1029.7 in /  34865.6 hPa SE 5.6 mph /  9 km/h 5.8 mph /  9.3 km/h 62 % 0.0 in /  0 mm
21:57 17.6 °F /  -8 °C 9.9 °F /  -12.3 °C 1029.7 in /  34865.6 hPa South 7.4 mph /  11.9 km/h 7.4 mph /  11.9 km/h 61 % 0.0 in /  0 mm
22:03 17.9 °F /  -7.8 °C 11.1 °F /  -11.6 °C 1029.7 in /  34865.6 hPa SSW 22.2 mph /  35.7 km/h 22.2 mph /  35.7 km/h 64 % 0.0 in /  0 mm
22:08 17.7 °F /  -7.9 °C 11.4 °F /  -11.4 °C 1030.0 in /  34875.8 hPa SSW 24.1 mph /  38.8 km/h 24.1 mph /  38.8 km/h 67 % 0.0 in /  0 mm
22:09 17.6 °F /  -8 °C 11.8 °F /  -11.2 °C 1030.0 in /  34875.8 hPa South 24.1 mph /  38.8 km/h 24.1 mph /  38.8 km/h 69 % 0.0 in /  0 mm
22:15 17.0 °F /  -8.3 °C 11.7 °F /  -11.3 °C 1029.7 in /  34865.6 hPa South 22.2 mph /  35.7 km/h 22.2 mph /  35.7 km/h 71 % 0.0 in /  0 mm
22:19 16.8 °F /  -8.4 °C 11.7 °F /  -11.3 °C 1030.0 in /  34875.8 hPa South 22.2 mph /  35.7 km/h 22.2 mph /  35.7 km/h 72 % 0.0 in /  0 mm
22:24 16.7 °F /  -8.5 °C 11.8 °F /  -11.2 °C 1030.0 in /  34875.8 hPa South 20.9 mph /  33.6 km/h 20.9 mph /  33.6 km/h 73 % 0.0 in /  0 mm
22:25 16.7 °F /  -8.5 °C 11.7 °F /  -11.3 °C 1030.0 in /  34875.8 hPa South 22.2 mph /  35.7 km/h 22.2 mph /  35.7 km/h 72 % 0.0 in /  0 mm
22:26 16.8 °F /  -8.4 °C 11.7 °F /  -11.3 °C 1030.0 in /  34875.8 hPa South 20.4 mph /  32.8 km/h 20.4 mph /  32.8 km/h 72 % 0.0 in /  0 mm
22:31 16.9 °F /  -8.4 °C 12.0 °F /  -11.1 °C 1030.0 in /  34875.8 hPa South 14.8 mph /  23.8 km/h 14.8 mph /  23.8 km/h 73 % 0.0 in /  0 mm
22:33 16.8 °F /  -8.4 °C 11.9 °F /  -11.2 °C 1030.0 in /  34875.8 hPa South 11.1 mph /  17.9 km/h 11.1 mph /  17.9 km/h 73 % 0.0 in /  0 mm
22:36 16.7 °F /  -8.5 °C 11.8 °F /  -11.2 °C 1030.0 in /  34875.8 hPa South 5.6 mph /  9 km/h 5.6 mph /  9 km/h 73 % 0.0 in /  0 mm
22:41 16.7 °F /  -8.5 °C 12.1 °F /  -11.1 °C 1030.0 in /  34875.8 hPa South 7.4 mph /  11.9 km/h 7.4 mph /  11.9 km/h 74 % 0.0 in /  0 mm
22:43 16.7 °F /  -8.5 °C 12.1 °F /  -11.1 °C 1030.0 in /  34875.8 hPa Calm     74 % 0.0 in /  0 mm
22:49 16.5 °F /  -8.6 °C 11.4 °F /  -11.4 °C 1030.4 in /  34889.3 hPa ESE 3.7 mph /  6 km/h 3.7 mph /  6 km/h 72 % 0.0 in /  0 mm
22:54 16.4 °F /  -8.7 °C 11.3 °F /  -11.5 °C 1030.0 in /  34875.8 hPa Calm     72 % 0.0 in /  0 mm
22:59 16.4 °F /  -8.7 °C 11.6 °F /  -11.3 °C 1030.0 in /  34875.8 hPa Calm     73 % 0.0 in /  0 mm
23:01 16.4 °F /  -8.7 °C 11.6 °F /  -11.3 °C 1030.0 in /  34875.8 hPa Calm     73 % 0.0 in /  0 mm
23:06 16.4 °F /  -8.7 °C 11.4 °F /  -11.4 °C 1030.0 in /  34875.8 hPa East 5.6 mph /  9 km/h 5.6 mph /  9 km/h 72 % 0.0 in /  0 mm
23:07 16.4 °F /  -8.7 °C 11.4 °F /  -11.4 °C 1030.4 in /  34889.3 hPa North 8.0 mph /  12.9 km/h 8.0 mph /  12.9 km/h 72 % 0.0 in /  0 mm
23:09 16.3 °F /  -8.7 °C 10.8 °F /  -11.8 °C 1030.4 in /  34889.3 hPa North 9.3 mph /  15 km/h 9.3 mph /  15 km/h 70 % 0.0 in /  0 mm
23:17 15.8 °F /  -9 °C 10.2 °F /  -12.1 °C 1030.4 in /  34889.3 hPa NNE 9.3 mph /  15 km/h 9.3 mph /  15 km/h 69 % 0.0 in /  0 mm
23:22 15.7 °F /  -9.1 °C 10.0 °F /  -12.2 °C 1030.4 in /  34889.3 hPa NNE 5.6 mph /  9 km/h 5.6 mph /  9 km/h 69 % 0.0 in /  0 mm
23:28 15.7 °F /  -9.1 °C 9.8 °F /  -12.3 °C 1030.4 in /  34889.3 hPa North 5.6 mph /  9 km/h 5.6 mph /  9 km/h 68 % 0.0 in /  0 mm
23:33 15.8 °F /  -9 °C 9.7 °F /  -12.4 °C 1030.4 in /  34889.3 hPa NNE 5.6 mph /  9 km/h 5.6 mph /  9 km/h 67 % 0.0 in /  0 mm
23:36 15.9 °F /  -8.9 °C 9.6 °F /  -12.4 °C 1030.4 in /  34889.3 hPa NNE 7.4 mph /  11.9 km/h 7.7 mph /  12.4 km/h 66 % 0.0 in /  0 mm
23:39 16.0 °F /  -8.9 °C 9.7 °F /  -12.4 °C 1030.0 in /  34875.8 hPa North 5.6 mph /  9 km/h 5.6 mph /  9 km/h 66 % 0.0 in /  0 mm
23:43 16.0 °F /  -8.9 °C 9.4 °F /  -12.6 °C 1030.4 in /  34889.3 hPa NNE 5.6 mph /  9 km/h 5.6 mph /  9 km/h 65 % 0.0 in /  0 mm
23:46 16.1 °F /  -8.8 °C 9.5 °F /  -12.5 °C 1030.4 in /  34889.3 hPa North 8.0 mph /  12.9 km/h 8.0 mph /  12.9 km/h 65 % 0.0 in /  0 mm
23:49 16.0 °F /  -8.9 °C 9.4 °F /  -12.6 °C 1030.4 in /  34889.3 hPa NNW 5.6 mph /  9 km/h 5.6 mph /  9 km/h 65 % 0.0 in /  0 mm
23:52 15.9 °F /  -8.9 °C 9.4 °F /  -12.6 °C 1030.0 in /  34875.8 hPa NNW 5.6 mph /  9 km/h 5.6 mph /  9 km/h 65 % 0.0 in /  0 mm
23:57 16.1 °F /  -8.8 °C 9.3 °F /  -12.6 °C 1030.4 in /  34889.3 hPa NNW 9.3 mph /  15 km/h 9.3 mph /  15 km/h 64 % 0.0 in /  0 mm
Puerto Banus, Marbella
Elogios de Weather Underground - 2.25 mb

Guión original por  Jim McMurry - jmcmurry@mwt.net Adaptado para la plantilla por  Wim van der Kuil - Leuven-Template.eu

Usted encontrará nuestra información del tiempo también en:

Weather Underground

Iberian Peninsula Weather Network